SOICAL (CONE)

导读

SOICAL (CONE)是美国于1969年9月30日发射的人造卫星,诞生于冷战时期太空探索浪潮中。作为美国早期航天布局的组成部分,它在空间观测领域开展探索性任务,为后续美国航天技术发展积累了宝贵轨道数据与工程经验,是20世纪60年代美国航天发射活动的见证者。

基本信息
目录编号:
4132
目录名称:
SOICAL (CONE)
国际标识:
1969-082K
轨道中心:
EARTH
卫星名称:
SOICAL (CONE)
卫星全名:
--
卫星状态:
在轨 (已飞行20712 天)
发射日期:
1969-09-30 UTC
国别 :
美国 (US)
星等 :
--
轨道信息
数据来源 国际轨道数据 AOE轨道数据
星历时间 2026-06-15T00:52:16+0800
12小时前
查看轨道信息
2026-06-15T06:00:00+0800
7小时前
查看轨道信息
半长轴 7163.254km 7163.264km
偏心率 0.000739 0.0007293
轨道倾角 69.993° 69.991°
近地点辐角 143.599° 140.984°
升交点赤经 276.970° 276.484°
平近点角 216.564° 240.579°
近地点 779.823km 779.902km
远地点 790.411km 790.352km
周期 100.560分钟 100.560分钟
每日圈数 14.31981 14.319781
详细信息
使用方式:
暂无
2D轨道图
3D轨道图
轨道高度分析图
轨道倾角分析图
轨道综合分析图
查看轨道综合分析图